Location: Baia Mare
(47.6567°N, 23.5850°E)
Time: 23:41:22
(UTC+03:00)

ISS - Pass Details

Date: 27 July 2018
Orbit: 402 x 408 km, 51.6° (Epoch: 22 July)

Event Time Altitude Azimuth Distance (km) Brightness Sun altitude
Rises 21:54:53 0° 268° (W) 2,317 0.9 -7.4°
Reaches altitude 10° 21:57:01 10° 275° (W) 1,460 -0.1 -7.7°
Maximum altitude 22:00:11 44° 350° (N) 569 -2.6 -8.1°
Drops below altitude 10° 22:03:21 10° 65° (ENE) 1,465 -1.2 -8.5°
Sets 22:05:30 0° 72° (ENE) 2,327 -0.3 -8.8°
